Temp
55 55 55 55 54 55 55 55 55 55 54 54 53 53 53 53 52 53 53 53 52 53 53 54 55 56 56 57 56 55 55 55 55 55 55 55 55 56 56 57 56 55 55 56 55 54 54 54 54 53 52 51 51 52 53 54 54 54 54 54 55 55 56 56 56 57 57 57 56
55 55 55 56 56 56 56 55 55 55 55 55 54 54 53 53 52 52 53 53 53 54 54 54 55 56 56 56 56 55 55 55 55 55 55 55 55 56 56 56 55 56 56 56 55 54 53 53 53 52 51 51 51 52 53 54 54 54 55 56 57 57 58 57 56 56 56 56 55
54 54 55 55 55 55 55 55 55 55 55 55 55 55 54 53 53 53 53 54 54 55 55 55 55 56 56 56 56 55 55 55 55 55 54 54 55 55 55 55 55 56 56 56 54 53 53 53 52 52 52 52 52 52 52 53 54 54 54 55 55 55 55 54 55 55 55 55 54
54 54 54 54 54 54 54 53 53 53 54 55 55 55 55 54 54 54 54 54 55 55 55 55 55 55 55 55 55 56 56 55 55 55 55 55 55 55 55 55 55 56 56 55 54 53 53 53 52 52 52 52 52 52 52 53 53 53 53 53 54 53 53 53 55 55 55 55 54
53 53 53 53 54 54 53 53 53 53 54 54 54 54 54 55 54 54 54 55 55 56 56 56 55 55 56 56 56 56 56 56 56 55 55 55 55 55 56 56 56 56 56 55 54 54 54 53 52 52 52 52 53 54 54 54 54 54 53 53 54 54 54 54 54 54 54 54 54
52 53 53 53 54 54 54 54 53 53 54 54 53 53 53 54 54 53 53 54 55 56 56 56 55 56 56 56 56 56 56 56 55 55 55 54 54 55 55 56 56 56 55 54 54 54 54 54 53 54 54 55 55 55 55 55 54 53 53 53 53 53 53 53 53 53 53 53 52
52 52 53 53 53 53 53 53 53 53 53 53 53 53 53 53 53 53 53 54 55 55 55 55 55 55 54 54 55 55 55 54 54 54 53 53 53 53 54 54 55 55 54 54 54 54 54 55 55 55 55 55 55 54 54 53 53 52 52 52 52 52 52 51 51 51 51 50 50
52 52 52 53 53 53 53 53 53 53 53 53 52 52 52 52 52 52 53 53 53 54 54 54 54 53 53 53 53 53 53 52 52 52 52 52 51 51 52 52 52 52 52 51 51 52 52 53 53 54 54 54 53 52 52 51 51 51 51 50 50 49 49 48 48 48 48 48 48
52 52 52 53 53 53 52 53 53 52 52 52 52 52 52 52 52 52 52 52 52 53 53 53 52 53 53 53 53 53 52 51 51 50 50 50 50 50 50 50 50 50 50 50 50 50 50 50 50 50 51 51 51 51 50 50 49 49 49 48 47 46 46 46 47 47 47 47 46
51 51 52 52 53 53 52 53 52 52 52 52 52 52 52 52 51 51 51 51 52 52 52 52 52 52 52 53 53 53 52 51 50 49 49 49 49 49 48 48 48 48 48 48 48 48 48 47 47 47 48 49 49 48 48 47 47 46 46 46 45 45 45 45 46 46 46 45 45
51 51 51 51 52 52 52 52 52 52 51 51 51 51 51 51 51 51 51 52 52 52 52 51 51 51 51 53 53 53 52 52 50 49 48 48 48 48 48 48 48 47 47 47 47 47 47 46 45 45 45 46 46 46 46 46 45 45 45 44 44 44 44 44 44 44 44 44 44
51 51 51 51 51 51 51 51 51 51 51 51 51 51 51 51 51 51 51 51 51 51 51 51 51 50 51 52 53 53 52 51 50 49 48 48 48 48 48 47 47 47 47 46 46 46 45 45 45 44 44 45 45 45 45 45 45 44 44 44 44 44 43 43 44 44 44 44 43
51 51 51 51 51 51 51 51 50 50 50 50 50 50 50 50 51 51 51 51 51 51 50 51 50 50 50 50 52 52 52 51 49 48 48 48 47 47 47 47 47 46 46 46 46 45 45 45 45 44 44 44 44 44 44 44 44 44 43 43 43 43 43 43 43 43 43 43 42
51 50 50 50 51 50 50 50 50 50 50 50 50 50 50 50 50 50 50 50 50 50 50 50 50 50 50 50 51 51 51 50 49 48 48 47 47 46 46 46 46 46 46 46 46 46 45 45 45 45 44 44 44 44 45 45 44 44 43 43 43 42 42 42 43 43 42 42 42
50 50 50 50 50 50 49 49 49 49 49 49 49 49 49 49 50 50 50 50 50 50 50 49 49 49 50 50 50 50 49 49 49 48 47 47 46 46 46 46 46 46 46 46 46 46 46 46 45 45 45 45 45 45 45 45 44 44 44 43 43 43 42 42 42 42 42 42 41
50 49 49 49 49 49 49 49 49 49 49 49 49 49 48 48 49 49 49 49 49 49 49 49 49 49 49 49 49 49 49 48 48 47 47 46 46 46 46 45 45 45 46 46 46 46 46 46 46 46 45 45 45 45 45 45 44 44 44 44 44 44 43 43 43 43 42 42 41
49 49 49 48 48 48 48 48 48 48 48 48 48 48 48 48 48 48 48 48 48 48 48 48 48 49 49 49 49 48 48 47 47 47 46 46 46 46 45 45 45 45 45 45 45 45 45 45 46 46 46 45 44 44 44 44 44 44 44 45 44 44 44 44 44 43 43 42 42
48 48 48 48 48 47 47 47 47 47 47 48 48 48 48 48 48 48 48 48 48 48 48 48 48 48 48 48 48 48 47 47 47 47 46 46 46 46 46 45 45 45 45 45 44 44 44 44 45 45 45 45 44 44 44 43 43 43 44 44 44 44 45 45 44 44 44 43 43
48 48 48 47 47 47 47 47 47 47 47 47 47 47 47 47 47 47 48 48 48 48 48 48 48 48 48 48 48 47 47 47 47 47 47 46 46 46 46 45 45 45 45 44 44 44 44 44 44 44 44 44 44 43 43 43 43 42 43 43 43 43 44 44 44 44 44 44 44
48 48 47 47 47 47 47 47 47 47 47 48 48 47 47 47 48 47 47 47 48 48 48 48 48 47 47 48 47 47 47 47 47 47 47 46 46 46 46 46 45 45 45 44 44 44 43 43 43 43 43 43 43 43 42 42 42 42 42 42 42 42 42 43 43 44 44 44 44
47 47 47 47 47 47 47 47 47 47 48 48 48 48 48 48 48 48 47 48 48 48 48 48 47 47 47 47 47 47 47 47 47 46 46 46 46 46 46 46 46 45 45 44 44 43 43 43 43 43 42 42 42 42 42 41 41 41 41 41 41 41 41 42 42 42 43 43 44
47 47 47 47 47 47 47 47 47 48 48 48 48 48 48 48 47 48 48 48 48 48 48 47 47 47 47 46 46 46 46 46 46 46 46 46 46 46 46 46 46 45 44 44 43 43 43 43 42 42 42 41 41 41 41 41 41 41 41 41 41 41 41 41 41 41 42 42 43
48 48 48 48 48 48 48 48 48 48 48 48 48 48 48 47 48 48 48 48 48 48 47 47 47 47 46 46 46 46 46 46 46 46 46 46 46 46 46 46 45 45 44 44 43 43 42 42 42 42 41 41 41 40 40 40 40 40 40 40 40 40 40 40 40 41 41 41 42
48 48 48 48 48 48 48 48 48 47 47 47 47 47 47 47 48 48 48 47 47 47 47 46 46 46 46 46 46 46 45 45 45 45 46 46 46 46 46 45 45 44 44 44 44 43 42 41 41 41 41 41 40 40 40 40 40 40 40 40 40 40 40 40 40 40 40 41 41
48 48 48 47 47 47 47 47 47 47 47 47 47 47 47 47 47 47 47 47 46 46 46 46 46 46 46 46 46 46 46 45 45 45 45 45 45 46 45 45 44 44 44 44 45 45 45 43 42 41 40 40 40 40 40 40 40 40 41 40 40 40 40 41 41 41 41 41 41
48 48 47 47 47 47 47 46 46 46 46 46 46 47 47 47 47 47 46 46 46 46 46 46 46 46 46 46 46 46 46 46 45 45 45 45 45 45 45 44 44 44 44 45 46 46 46 45 44 42 41 40 40 40 41 41 41 41 41 41 41 41 41 41 41 41 41 41 41
48 47 47 47 46 46 46 46 46 46 46 46 46 46 46 46 46 46 46 45 45 46 46 45 46 46 46 46 46 46 45 46 46 45 45 45 44 44 44 44 44 44 45 46 47 47 47 46 46 44 42 41 40 40 40 41 41 41 41 41 41 41 42 42 42 42 42 41 41
47 47 46 46 46 46 46 46 46 45 45 45 45 45 46 46 46 46 45 45 45 45 45 45 46 46 46 46 46 45 45 46 46 45 45 45 45 45 44 44 44 45 46 47 47 47 47 47 46 46 44 42 41 41 41 41 41 41 42 42 42 42 42 42 43 43 42 42 42
47 47 46 46 46 46 46 46 45 45 45 45 45 46 46 46 45 45 45 45 45 45 45 45 46 46 46 46 46 45 46 46 46 46 45 45 45 45 45 45 45 46 47 48 48 48 48 47 47 46 46 44 42 42 41 41 41 42 42 43 43 43 43 43 43 43 43 43 43
47 46 46 46 46 45 45 45 45 45 45 45 46 46 45 45 45 45 45 45 45 45 45 46 46 46 45 45 45 45 45 46 46 46 45 45 45 45 45 45 45 46 47 48 48 48 48 47 47 47 46 45 43 42 42 42 42 42 42 43 43 44 44 44 44 44 44 44 44
47 46 46 46 45 45 45 45 45 45 46 45 45 45 45 45 45 45 45 45 45 46 46 46 46 45 45 46 45 45 45 45 45 45 45 45 45 45 45 45 45 46 46 48 48 48 47 47 47 46 46 45 44 43 43 43 42 43 43 43 44 45 45 45 45 45 46 45 45
47 46 46 46 45 45 45 45 46 46 46 46 45 45 45 45 45 45 46 46 45 46 46 46 45 45 45 45 45 45 45 45 45 45 45 45 45 45 45 45 45 46 46 48 48 47 47 47 46 46 46 45 44 43 43 44 43 43 44 45 45 46 46 47 46 46 46 47 46
47 46 46 46 45 45 46 46 46 46 46 45 45 45 45 45 45 45 45 46 45 45 45 45 44 45 45 45 45 45 45 45 45 46 46 46 46 46 45 45 45 46 47 47 47 47 47 46 46 46 45 45 44 44 44 44 44 44 44 45 46 47 47 47 47 47 47 47 47
46 46 46 46 46 46 46 46 46 46 46 45 45 45 45 45 45 45 45 45 45 45 45 45 45 45 45 46 46 46 46 46 46 46 47 47 47 46 46 45 44 45 46 47 47 47 46 46 46 45 45 45 44 44 44 44 44 44 45 45 46 47 47 47 47 47 47 48 48
46 46 46 45 46 46 46 46 46 45 45 45 44 45 45 45 44 45 45 45 45 45 45 45 45 45 45 46 46 46 46 46 46 46 47 47 47 47 47 46 46 46 46 47 46 46 46 46 45 45 45 44 44 45 45 45 45 45 45 45 46 46 46 46 47 47 48 48 48
46 46 45 45 45 45 45 45 45 45 44 44 44 44 44 44 44 45 45 46 45 45 45 45 45 45 45 45 45 46 46 45 46 46 46 46 47 47 47 47 46 46 46 46 46 46 46 46 45 45 44 44 45 45 46 45 45 45 45 46 46 46 46 46 46 47 48 48 48
46 46 45 45 45 45 45 45 44 44 43 43 43 43 44 44 44 44 45 45 45 45 44 45 44 44 44 44 44 45 45 45 46 45 45 45 46 47 47 47 47 46 46 46 46 46 46 46 45 45 44 44 45 45 45 45 45 45 45 46 46 46 46 46 47 47 47 47 47
46 46 45 45 45 45 44 44 44 43 43 43 43 44 44 44 44 44 45 45 44 44 44 44 44 44 44 44 44 44 44 45 45 45 44 45 45 46 47 47 47 46 46 46 46 46 46 45 45 45 45 45 45 45 45 45 45 45 45 45 46 46 46 46 47 47 47 47 46
46 46 46 45 45 45 44 44 44 43 43 43 44 44 44 44 44 44 45 45 45 44 44 44 44 44 44 45 44 44 44 45 45 44 44 44 45 46 46 47 46 46 46 46 46 46 46 46 45 45 45 45 45 45 45 45 45 45 45 45 45 46 46 46 47 47 47 47 46
46 46 46 45 45 45 44 44 44 44 44 44 44 44 44 44 44 45 45 45 45 45 45 44 45 45 45 45 45 44 44 44 44 44 43 43 44 45 45 46 46 46 46 46 46 46 46 46 46 45 45 45 45 45 45 45 45 44 44 44 45 45 46 46 47 47 47 47 46
46 46 45 45 45 44 44 44 44 44 44 44 44 44 45 45 45 45 45 45 45 45 45 45 45 46 45 45 45 44 43 43 44 44 43 43 44 44 45 45 46 46 46 46 46 46 46 46 46 46 45 45 45 45 45 45 44 44 44 44 44 45 45 46 46 47 47 47 47
MSLP
1016.30 1016.10 1015.90 1015.70 1015.50 1015.26 1015.06 1014.86 1014.70 1014.54 1014.34 1014.14 1013.98 1013.82 1013.62 1013.42 1013.18 1012.94 1012.70 1012.54 1012.38 1012.14 1011.98 1011.74 1011.54 1011.30 1011.06 1010.86 1010.70 1010.54 1010.42 1010.22 1009.98 1009.78 1009.54 1009.30 1009.10 1008.82 1008.54 1008.30 1008.06 1007.82 1007.58 1007.34 1007.22 1007.14 1007.10 1006.98 1006.98 1006.90 1006.82 1006.78 1006.62 1006.42 1006.26 1006.10 1005.94 1005.78 1005.62 1005.42 1005.18 1004.98 1004.78 1004.66 1004.54 1004.42 1004.26 1004.18 1004.14
1016.34 1016.14 1015.98 1015.70 1015.54 1015.30 1015.10 1014.90 1014.74 1014.58 1014.42 1014.22 1014.02 1013.82 1013.66 1013.42 1013.22 1012.98 1012.70 1012.50 1012.30 1012.14 1011.94 1011.70 1011.50 1011.26 1011.06 1010.90 1010.70 1010.54 1010.34 1010.14 1009.90 1009.70 1009.42 1009.18 1008.98 1008.74 1008.50 1008.26 1008.06 1007.78 1007.50 1007.26 1007.14 1007.06 1006.98 1006.86 1006.82 1006.78 1006.70 1006.58 1006.50 1006.30 1006.14 1005.94 1005.78 1005.62 1005.42 1005.18 1004.98 1004.74 1004.58 1004.46 1004.46 1004.34 1004.26 1004.18 1004.14
1016.42 1016.26 1016.02 1015.78 1015.62 1015.42 1015.22 1014.98 1014.82 1014.70 1014.50 1014.26 1014.06 1013.90 1013.70 1013.50 1013.26 1013.02 1012.74 1012.50 1012.26 1012.06 1011.82 1011.66 1011.46 1011.26 1011.06 1010.86 1010.66 1010.46 1010.26 1010.06 1009.82 1009.54 1009.30 1009.10 1008.90 1008.70 1008.42 1008.26 1007.98 1007.74 1007.46 1007.26 1007.14 1007.02 1006.90 1006.82 1006.70 1006.66 1006.58 1006.46 1006.34 1006.22 1006.02 1005.82 1005.70 1005.54 1005.34 1005.14 1004.98 1004.82 1004.70 1004.58 1004.46 1004.34 1004.22 1004.14 1004.06
1016.54 1016.34 1016.14 1015.90 1015.74 1015.54 1015.38 1015.22 1015.02 1014.82 1014.62 1014.42 1014.18 1013.98 1013.78 1013.54 1013.34 1013.10 1012.82 1012.50 1012.22 1011.98 1011.82 1011.62 1011.46 1011.26 1011.02 1010.82 1010.58 1010.38 1010.14 1009.98 1009.70 1009.46 1009.22 1008.98 1008.82 1008.58 1008.38 1008.18 1007.98 1007.70 1007.50 1007.30 1007.14 1006.98 1006.86 1006.74 1006.70 1006.62 1006.54 1006.42 1006.26 1006.14 1005.98 1005.82 1005.70 1005.54 1005.42 1005.26 1005.10 1004.98 1004.78 1004.58 1004.38 1004.22 1004.10 1003.98 1003.86
1016.58 1016.42 1016.22 1016.02 1015.82 1015.70 1015.54 1015.38 1015.18 1014.94 1014.70 1014.54 1014.34 1014.10 1013.86 1013.62 1013.42 1013.18 1012.86 1012.50 1012.22 1012.02 1011.82 1011.66 1011.50 1011.26 1011.02 1010.82 1010.58 1010.34 1010.14 1009.90 1009.70 1009.46 1009.26 1008.98 1008.82 1008.58 1008.38 1008.14 1007.94 1007.70 1007.50 1007.30 1007.10 1006.98 1006.82 1006.70 1006.62 1006.54 1006.46 1006.38 1006.18 1006.02 1005.86 1005.78 1005.70 1005.58 1005.46 1005.30 1005.18 1004.98 1004.78 1004.54 1004.38 1004.14 1003.98 1003.94 1003.82
1016.70 1016.46 1016.30 1016.18 1015.98 1015.82 1015.66 1015.46 1015.26 1015.10 1014.86 1014.70 1014.46 1014.26 1014.02 1013.82 1013.58 1013.34 1013.06 1012.70 1012.38 1012.14 1011.98 1011.82 1011.62 1011.42 1011.14 1010.94 1010.70 1010.46 1010.26 1010.06 1009.86 1009.66 1009.42 1009.22 1008.98 1008.78 1008.54 1008.26 1008.10 1007.86 1007.62 1007.42 1007.18 1006.98 1006.82 1006.66 1006.54 1006.42 1006.26 1006.18 1006.10 1005.98 1005.94 1005.90 1005.82 1005.70 1005.54 1005.34 1005.18 1005.02 1004.82 1004.62 1004.30 1004.10 1003.98 1003.98 1003.90
1016.78 1016.58 1016.42 1016.26 1016.06 1015.90 1015.74 1015.58 1015.38 1015.18 1014.98 1014.78 1014.58 1014.38 1014.18 1013.98 1013.74 1013.50 1013.26 1012.98 1012.62 1012.38 1012.18 1011.98 1011.82 1011.62 1011.38 1011.10 1010.90 1010.70 1010.50 1010.34 1010.14 1009.98 1009.74 1009.54 1009.30 1009.10 1008.82 1008.58 1008.38 1008.14 1007.90 1007.66 1007.42 1007.14 1006.90 1006.70 1006.54 1006.38 1006.26 1006.22 1006.18 1006.14 1006.14 1006.10 1005.94 1005.78 1005.58 1005.42 1005.26 1005.18 1005.06 1004.86 1004.66 1004.46 1004.30 1004.26 1004.22
1016.90 1016.70 1016.50 1016.38 1016.22 1016.02 1015.82 1015.66 1015.50 1015.26 1015.10 1014.90 1014.70 1014.54 1014.34 1014.14 1013.94 1013.70 1013.42 1013.14 1012.90 1012.70 1012.50 1012.26 1012.10 1011.90 1011.66 1011.42 1011.18 1010.98 1010.82 1010.62 1010.46 1010.26 1010.06 1009.86 1009.70 1009.46 1009.22 1008.98 1008.74 1008.54 1008.26 1008.10 1007.82 1007.54 1007.30 1006.98 1006.78 1006.58 1006.42 1006.34 1006.30 1006.30 1006.26 1006.18 1006.06 1005.86 1005.70 1005.62 1005.62 1005.58 1005.54 1005.34 1005.14 1004.94 1004.78 1004.70 1004.54
1016.94 1016.74 1016.58 1016.42 1016.26 1016.10 1015.94 1015.78 1015.58 1015.42 1015.26 1015.06 1014.90 1014.70 1014.54 1014.34 1014.14 1013.86 1013.62 1013.42 1013.18 1012.98 1012.78 1012.58 1012.38 1012.14 1011.86 1011.62 1011.42 1011.26 1011.06 1010.98 1010.82 1010.62 1010.42 1010.22 1009.98 1009.78 1009.54 1009.34 1009.10 1008.90 1008.70 1008.50 1008.26 1008.02 1007.82 1007.54 1007.30 1007.10 1006.82 1006.66 1006.58 1006.58 1006.54 1006.46 1006.34 1006.18 1006.10 1006.02 1006.02 1005.98 1005.82 1005.66 1005.50 1005.30 1005.14 1005.02 1004.94
1016.98 1016.82 1016.66 1016.50 1016.38 1016.22 1016.02 1015.86 1015.70 1015.54 1015.38 1015.18 1015.02 1014.86 1014.70 1014.50 1014.30 1014.10 1013.86 1013.66 1013.42 1013.18 1012.98 1012.82 1012.54 1012.34 1012.10 1011.82 1011.62 1011.46 1011.30 1011.18 1011.02 1010.86 1010.70 1010.50 1010.26 1010.10 1009.90 1009.66 1009.46 1009.26 1009.06 1008.90 1008.70 1008.46 1008.26 1008.06 1007.90 1007.70 1007.46 1007.26 1007.10 1007.10 1007.02 1006.94 1006.78 1006.66 1006.54 1006.42 1006.34 1006.18 1006.02 1005.90 1005.82 1005.70 1005.54 1005.42 1005.30
1017.14 1016.98 1016.82 1016.70 1016.50 1016.34 1016.14 1015.94 1015.78 1015.62 1015.50 1015.30 1015.14 1014.98 1014.82 1014.70 1014.50 1014.26 1014.10 1013.86 1013.62 1013.38 1013.18 1013.02 1012.82 1012.58 1012.30 1012.02 1011.82 1011.70 1011.54 1011.42 1011.26 1011.10 1010.90 1010.70 1010.54 1010.38 1010.18 1009.98 1009.82 1009.58 1009.42 1009.26 1009.06 1008.86 1008.66 1008.50 1008.34 1008.14 1007.98 1007.82 1007.70 1007.54 1007.42 1007.30 1007.14 1006.98 1006.82 1006.74 1006.62 1006.42 1006.30 1006.22 1006.14 1006.02 1005.94 1005.82 1005.70
1017.26 1017.10 1016.98 1016.82 1016.66 1016.46 1016.26 1016.06 1015.90 1015.78 1015.62 1015.46 1015.30 1015.14 1015.02 1014.86 1014.70 1014.50 1014.26 1014.02 1013.78 1013.62 1013.42 1013.26 1013.06 1012.82 1012.58 1012.30 1012.10 1011.94 1011.82 1011.66 1011.50 1011.30 1011.10 1010.98 1010.78 1010.62 1010.42 1010.26 1010.10 1009.90 1009.70 1009.54 1009.42 1009.22 1009.06 1008.86 1008.70 1008.54 1008.38 1008.22 1008.10 1007.94 1007.78 1007.58 1007.42 1007.26 1007.10 1007.02 1006.86 1006.78 1006.66 1006.54 1006.46 1006.38 1006.26 1006.18 1005.98
1017.42 1017.26 1017.10 1016.98 1016.78 1016.58 1016.42 1016.22 1016.06 1015.94 1015.78 1015.62 1015.50 1015.34 1015.22 1015.06 1014.86 1014.70 1014.46 1014.26 1014.02 1013.82 1013.70 1013.50 1013.30 1013.10 1012.86 1012.70 1012.42 1012.18 1012.06 1011.90 1011.74 1011.54 1011.38 1011.22 1011.02 1010.82 1010.70 1010.54 1010.38 1010.18 1010.02 1009.86 1009.70 1009.54 1009.38 1009.18 1009.02 1008.82 1008.70 1008.54 1008.42 1008.26 1008.10 1007.86 1007.70 1007.54 1007.42 1007.26 1007.18 1007.10 1006.98 1006.90 1006.78 1006.70 1006.54 1006.38 1006.26
1017.54 1017.42 1017.26 1017.10 1016.90 1016.70 1016.54 1016.42 1016.26 1016.10 1015.98 1015.82 1015.70 1015.54 1015.42 1015.26 1015.10 1014.90 1014.70 1014.46 1014.26 1014.10 1013.94 1013.70 1013.54 1013.38 1013.18 1012.98 1012.70 1012.50 1012.34 1012.18 1011.98 1011.82 1011.66 1011.46 1011.30 1011.14 1010.98 1010.82 1010.66 1010.46 1010.30 1010.14 1009.98 1009.82 1009.66 1009.50 1009.34 1009.18 1009.02 1008.90 1008.74 1008.58 1008.42 1008.22 1008.06 1007.90 1007.78 1007.62 1007.50 1007.42 1007.30 1007.22 1007.10 1006.94 1006.78 1006.58 1006.46
1017.66 1017.54 1017.42 1017.22 1017.06 1016.90 1016.74 1016.58 1016.42 1016.30 1016.18 1016.02 1015.94 1015.82 1015.66 1015.50 1015.34 1015.14 1014.94 1014.74 1014.54 1014.34 1014.14 1013.94 1013.74 1013.58 1013.42 1013.22 1012.98 1012.82 1012.62 1012.42 1012.26 1012.06 1011.86 1011.74 1011.54 1011.42 1011.26 1011.10 1010.94 1010.74 1010.62 1010.42 1010.26 1010.10 1009.94 1009.78 1009.62 1009.50 1009.38 1009.22 1009.06 1008.94 1008.74 1008.58 1008.42 1008.26 1008.14 1007.98 1007.82 1007.70 1007.58 1007.46 1007.34 1007.18 1007.02 1006.86 1006.70
1017.78 1017.70 1017.54 1017.42 1017.26 1017.10 1016.98 1016.82 1016.66 1016.54 1016.42 1016.30 1016.22 1016.10 1015.94 1015.78 1015.58 1015.42 1015.18 1014.98 1014.78 1014.54 1014.38 1014.18 1013.98 1013.82 1013.62 1013.42 1013.26 1013.06 1012.86 1012.66 1012.46 1012.26 1012.14 1011.98 1011.82 1011.70 1011.54 1011.38 1011.26 1011.10 1010.98 1010.82 1010.58 1010.42 1010.26 1010.10 1009.94 1009.82 1009.70 1009.54 1009.42 1009.26 1009.10 1008.94 1008.78 1008.58 1008.42 1008.22 1008.06 1007.94 1007.82 1007.70 1007.54 1007.42 1007.26 1007.14 1007.02
1017.94 1017.82 1017.70 1017.58 1017.46 1017.34 1017.18 1017.06 1016.94 1016.82 1016.70 1016.58 1016.46 1016.34 1016.22 1016.02 1015.82 1015.66 1015.42 1015.26 1015.06 1014.82 1014.62 1014.42 1014.26 1014.06 1013.86 1013.66 1013.46 1013.30 1013.10 1012.90 1012.70 1012.54 1012.42 1012.26 1012.14 1011.98 1011.82 1011.70 1011.58 1011.46 1011.34 1011.18 1010.98 1010.82 1010.66 1010.46 1010.34 1010.22 1010.10 1009.94 1009.82 1009.66 1009.50 1009.34 1009.14 1008.98 1008.74 1008.54 1008.34 1008.18 1008.06 1007.94 1007.82 1007.70 1007.54 1007.42 1007.42
1018.10 1017.98 1017.86 1017.74 1017.66 1017.54 1017.42 1017.30 1017.18 1017.06 1016.94 1016.82 1016.70 1016.54 1016.42 1016.26 1016.06 1015.86 1015.70 1015.50 1015.30 1015.10 1014.86 1014.70 1014.50 1014.30 1014.14 1013.94 1013.74 1013.54 1013.42 1013.22 1013.02 1012.86 1012.70 1012.58 1012.46 1012.30 1012.14 1012.06 1011.94 1011.82 1011.70 1011.58 1011.42 1011.26 1011.10 1010.94 1010.78 1010.66 1010.50 1010.34 1010.18 1010.06 1009.90 1009.74 1009.54 1009.34 1009.14 1008.98 1008.74 1008.54 1008.42 1008.26 1008.14 1008.02 1007.94 1007.82 1007.82
1018.22 1018.14 1018.02 1017.94 1017.82 1017.74 1017.66 1017.50 1017.38 1017.26 1017.14 1016.98 1016.90 1016.78 1016.62 1016.42 1016.26 1016.10 1015.90 1015.70 1015.54 1015.34 1015.10 1014.94 1014.74 1014.54 1014.38 1014.22 1014.02 1013.82 1013.70 1013.54 1013.34 1013.18 1013.02 1012.90 1012.74 1012.58 1012.42 1012.38 1012.26 1012.14 1012.06 1011.98 1011.82 1011.70 1011.54 1011.38 1011.22 1011.06 1010.90 1010.70 1010.54 1010.42 1010.26 1010.14 1009.94 1009.78 1009.58 1009.42 1009.26 1009.10 1008.90 1008.70 1008.54 1008.42 1008.30 1008.26 1008.14
1018.42 1018.30 1018.26 1018.14 1018.06 1017.94 1017.82 1017.74 1017.62 1017.46 1017.34 1017.22 1017.06 1016.94 1016.78 1016.62 1016.42 1016.26 1016.10 1015.94 1015.74 1015.54 1015.38 1015.18 1014.98 1014.82 1014.66 1014.50 1014.30 1014.14 1013.98 1013.82 1013.66 1013.50 1013.30 1013.14 1012.98 1012.86 1012.74 1012.66 1012.54 1012.46 1012.38 1012.26 1012.14 1012.02 1011.90 1011.78 1011.58 1011.46 1011.34 1011.10 1010.94 1010.78 1010.62 1010.46 1010.30 1010.14 1009.98 1009.82 1009.74 1009.62 1009.42 1009.26 1009.02 1008.86 1008.70 1008.58 1008.46
1018.58 1018.50 1018.46 1018.42 1018.26 1018.14 1018.02 1017.94 1017.82 1017.66 1017.50 1017.38 1017.26 1017.10 1016.98 1016.82 1016.62 1016.46 1016.30 1016.14 1015.98 1015.78 1015.62 1015.46 1015.26 1015.10 1014.98 1014.78 1014.58 1014.46 1014.34 1014.18 1013.98 1013.82 1013.62 1013.46 1013.30 1013.18 1013.10 1012.98 1012.82 1012.74 1012.66 1012.54 1012.46 1012.38 1012.26 1012.14 1011.98 1011.86 1011.70 1011.54 1011.38 1011.18 1011.02 1010.82 1010.70 1010.54 1010.42 1010.30 1010.18 1010.06 1009.90 1009.74 1009.54 1009.38 1009.22 1009.06 1008.90
1018.78 1018.70 1018.62 1018.54 1018.42 1018.34 1018.26 1018.14 1017.98 1017.82 1017.66 1017.54 1017.42 1017.26 1017.10 1016.98 1016.82 1016.70 1016.54 1016.38 1016.18 1015.98 1015.82 1015.70 1015.54 1015.42 1015.30 1015.14 1014.98 1014.82 1014.70 1014.54 1014.30 1014.14 1013.98 1013.78 1013.66 1013.54 1013.42 1013.26 1013.14 1013.06 1012.98 1012.82 1012.82 1012.70 1012.58 1012.46 1012.38 1012.26 1012.06 1011.94 1011.78 1011.62 1011.42 1011.26 1011.10 1010.98 1010.82 1010.74 1010.58 1010.46 1010.30 1010.22 1010.10 1009.94 1009.78 1009.66 1009.50
1018.98 1018.86 1018.78 1018.70 1018.58 1018.50 1018.38 1018.26 1018.14 1017.98 1017.82 1017.70 1017.58 1017.42 1017.30 1017.18 1017.02 1016.90 1016.74 1016.54 1016.42 1016.26 1016.14 1015.98 1015.86 1015.74 1015.66 1015.54 1015.38 1015.18 1014.98 1014.78 1014.62 1014.42 1014.26 1014.14 1014.02 1013.90 1013.78 1013.62 1013.46 1013.34 1013.26 1013.26 1013.18 1013.10 1012.98 1012.82 1012.74 1012.58 1012.46 1012.30 1012.18 1012.02 1011.86 1011.74 1011.54 1011.42 1011.26 1011.10 1010.98 1010.86 1010.74 1010.66 1010.54 1010.42 1010.34 1010.22 1010.10
1019.10 1019.02 1018.98 1018.82 1018.78 1018.66 1018.54 1018.42 1018.26 1018.14 1018.02 1017.90 1017.78 1017.66 1017.50 1017.38 1017.26 1017.10 1016.98 1016.82 1016.70 1016.54 1016.42 1016.26 1016.18 1016.06 1015.90 1015.78 1015.62 1015.42 1015.26 1015.06 1014.86 1014.70 1014.58 1014.42 1014.34 1014.18 1014.06 1013.94 1013.82 1013.74 1013.70 1013.66 1013.58 1013.50 1013.38 1013.26 1013.14 1013.02 1012.86 1012.70 1012.54 1012.42 1012.30 1012.14 1011.98 1011.82 1011.66 1011.50 1011.34 1011.22 1011.10 1011.02 1010.98 1010.86 1010.74 1010.70 1010.54
1019.26 1019.22 1019.14 1019.02 1018.98 1018.86 1018.74 1018.58 1018.46 1018.38 1018.26 1018.18 1018.06 1017.90 1017.74 1017.62 1017.50 1017.30 1017.18 1017.06 1016.94 1016.82 1016.70 1016.58 1016.46 1016.30 1016.14 1015.98 1015.82 1015.66 1015.46 1015.30 1015.14 1015.02 1014.86 1014.78 1014.62 1014.50 1014.38 1014.26 1014.18 1014.14 1014.10 1014.02 1013.90 1013.74 1013.66 1013.62 1013.54 1013.42 1013.26 1013.10 1012.94 1012.78 1012.62 1012.50 1012.34 1012.18 1012.02 1011.86 1011.70 1011.58 1011.42 1011.30 1011.26 1011.14 1011.10 1011.06 1010.98
1019.42 1019.42 1019.34 1019.26 1019.18 1019.06 1018.94 1018.82 1018.70 1018.62 1018.54 1018.42 1018.26 1018.14 1017.98 1017.82 1017.70 1017.54 1017.42 1017.26 1017.18 1017.06 1016.94 1016.82 1016.66 1016.54 1016.38 1016.22 1016.02 1015.86 1015.70 1015.54 1015.42 1015.34 1015.22 1015.06 1014.94 1014.82 1014.70 1014.54 1014.50 1014.50 1014.42 1014.34 1014.18 1014.02 1013.94 1013.86 1013.82 1013.74 1013.62 1013.50 1013.26 1013.10 1012.94 1012.78 1012.66 1012.50 1012.34 1012.18 1012.06 1011.90 1011.74 1011.62 1011.54 1011.46 1011.42 1011.34 1011.26
1019.66 1019.58 1019.54 1019.50 1019.38 1019.26 1019.18 1019.10 1018.98 1018.86 1018.78 1018.66 1018.50 1018.38 1018.26 1018.14 1017.94 1017.82 1017.66 1017.54 1017.42 1017.26 1017.14 1017.02 1016.86 1016.70 1016.54 1016.42 1016.26 1016.10 1015.94 1015.82 1015.74 1015.62 1015.50 1015.42 1015.22 1015.10 1014.98 1014.86 1014.82 1014.78 1014.70 1014.58 1014.42 1014.30 1014.22 1014.10 1013.98 1013.94 1013.86 1013.78 1013.62 1013.42 1013.26 1013.10 1012.90 1012.74 1012.58 1012.46 1012.34 1012.22 1012.06 1011.98 1011.86 1011.74 1011.66 1011.62 1011.54
1019.82 1019.78 1019.74 1019.66 1019.54 1019.46 1019.38 1019.26 1019.18 1019.10 1018.98 1018.82 1018.74 1018.62 1018.50 1018.34 1018.18 1017.98 1017.86 1017.78 1017.62 1017.46 1017.30 1017.18 1017.10 1016.94 1016.74 1016.58 1016.46 1016.34 1016.22 1016.10 1015.98 1015.90 1015.78 1015.66 1015.50 1015.38 1015.26 1015.18 1015.10 1015.02 1014.94 1014.78 1014.66 1014.54 1014.42 1014.26 1014.18 1014.14 1014.06 1013.98 1013.82 1013.70 1013.54 1013.34 1013.18 1013.06 1012.86 1012.70 1012.62 1012.50 1012.38 1012.26 1012.14 1012.02 1011.90 1011.82 1011.74
1020.02 1019.98 1019.90 1019.82 1019.70 1019.62 1019.54 1019.46 1019.38 1019.26 1019.18 1019.06 1018.98 1018.82 1018.70 1018.50 1018.38 1018.22 1018.10 1017.94 1017.78 1017.66 1017.54 1017.42 1017.34 1017.14 1016.98 1016.86 1016.78 1016.62 1016.50 1016.38 1016.26 1016.18 1016.06 1015.90 1015.78 1015.66 1015.54 1015.42 1015.38 1015.26 1015.14 1014.98 1014.86 1014.74 1014.62 1014.54 1014.42 1014.30 1014.22 1014.14 1014.02 1013.94 1013.82 1013.62 1013.50 1013.34 1013.18 1013.02 1012.90 1012.78 1012.66 1012.54 1012.42 1012.26 1012.14 1012.02 1011.94
1020.22 1020.14 1020.10 1019.98 1019.90 1019.82 1019.78 1019.70 1019.62 1019.54 1019.42 1019.30 1019.14 1018.98 1018.82 1018.70 1018.54 1018.42 1018.26 1018.14 1018.02 1017.94 1017.86 1017.78 1017.62 1017.42 1017.30 1017.22 1017.06 1016.94 1016.82 1016.70 1016.62 1016.50 1016.34 1016.18 1016.02 1015.94 1015.86 1015.78 1015.70 1015.54 1015.42 1015.26 1015.14 1015.02 1014.90 1014.78 1014.70 1014.54 1014.46 1014.42 1014.26 1014.14 1014.02 1013.90 1013.74 1013.58 1013.42 1013.30 1013.14 1013.02 1012.86 1012.74 1012.62 1012.50 1012.34 1012.22 1012.10
1020.38 1020.30 1020.26 1020.14 1020.06 1020.02 1019.98 1019.90 1019.82 1019.70 1019.58 1019.46 1019.30 1019.14 1018.98 1018.86 1018.74 1018.66 1018.54 1018.46 1018.38 1018.26 1018.18 1018.02 1017.86 1017.70 1017.62 1017.50 1017.38 1017.26 1017.14 1017.02 1016.90 1016.74 1016.62 1016.46 1016.34 1016.26 1016.14 1016.06 1015.94 1015.82 1015.70 1015.54 1015.42 1015.30 1015.22 1015.06 1014.98 1014.90 1014.78 1014.66 1014.54 1014.42 1014.30 1014.14 1014.02 1013.86 1013.70 1013.54 1013.42 1013.22 1013.06 1012.94 1012.82 1012.70 1012.54 1012.42 1012.26
1020.54 1020.46 1020.38 1020.30 1020.26 1020.18 1020.14 1020.06 1019.98 1019.86 1019.74 1019.62 1019.50 1019.34 1019.22 1019.10 1018.98 1018.90 1018.82 1018.74 1018.66 1018.54 1018.42 1018.22 1018.10 1017.98 1017.86 1017.70 1017.62 1017.54 1017.42 1017.26 1017.14 1017.02 1016.90 1016.78 1016.70 1016.54 1016.42 1016.34 1016.22 1016.10 1015.98 1015.82 1015.70 1015.62 1015.50 1015.42 1015.26 1015.22 1015.10 1014.98 1014.86 1014.70 1014.54 1014.42 1014.26 1014.14 1013.98 1013.78 1013.58 1013.42 1013.26 1013.10 1013.02 1012.90 1012.78 1012.58 1012.46
1020.70 1020.62 1020.54 1020.46 1020.42 1020.34 1020.30 1020.22 1020.14 1020.02 1019.90 1019.78 1019.66 1019.54 1019.46 1019.38 1019.26 1019.18 1019.10 1019.02 1018.90 1018.78 1018.66 1018.54 1018.38 1018.26 1018.14 1017.98 1017.82 1017.74 1017.62 1017.54 1017.42 1017.26 1017.10 1016.98 1016.90 1016.78 1016.70 1016.58 1016.50 1016.42 1016.26 1016.14 1015.98 1015.90 1015.82 1015.70 1015.54 1015.46 1015.42 1015.26 1015.14 1014.98 1014.82 1014.70 1014.54 1014.42 1014.26 1014.06 1013.86 1013.70 1013.54 1013.42 1013.26 1013.14 1012.98 1012.86 1012.70
1020.86 1020.82 1020.70 1020.66 1020.58 1020.54 1020.46 1020.38 1020.26 1020.18 1020.06 1019.98 1019.82 1019.74 1019.70 1019.58 1019.50 1019.42 1019.30 1019.26 1019.14 1019.06 1018.94 1018.82 1018.70 1018.58 1018.46 1018.26 1018.14 1017.98 1017.86 1017.74 1017.58 1017.46 1017.30 1017.22 1017.10 1016.98 1016.90 1016.86 1016.82 1016.74 1016.58 1016.42 1016.26 1016.18 1016.06 1015.98 1015.82 1015.74 1015.66 1015.50 1015.38 1015.26 1015.10 1014.94 1014.78 1014.62 1014.46 1014.30 1014.14 1013.98 1013.82 1013.66 1013.54 1013.42 1013.26 1013.10 1012.98
1021.06 1020.98 1020.90 1020.82 1020.78 1020.70 1020.62 1020.54 1020.46 1020.34 1020.26 1020.14 1020.10 1019.98 1019.94 1019.82 1019.78 1019.70 1019.62 1019.54 1019.42 1019.34 1019.22 1019.10 1019.02 1018.90 1018.74 1018.54 1018.38 1018.26 1018.10 1017.98 1017.86 1017.70 1017.54 1017.42 1017.26 1017.10 1017.06 1017.06 1017.06 1016.98 1016.86 1016.70 1016.54 1016.42 1016.30 1016.22 1016.10 1016.02 1015.90 1015.70 1015.54 1015.42 1015.26 1015.10 1014.98 1014.82 1014.70 1014.54 1014.42 1014.26 1014.14 1013.98 1013.82 1013.70 1013.58 1013.46 1013.34
1021.26 1021.18 1021.10 1021.06 1020.98 1020.90 1020.82 1020.74 1020.66 1020.54 1020.46 1020.42 1020.30 1020.26 1020.18 1020.14 1020.06 1019.98 1019.90 1019.82 1019.70 1019.54 1019.42 1019.38 1019.26 1019.10 1019.02 1018.86 1018.70 1018.58 1018.46 1018.30 1018.18 1018.02 1017.86 1017.70 1017.50 1017.34 1017.26 1017.22 1017.22 1017.18 1017.10 1016.98 1016.82 1016.70 1016.58 1016.50 1016.38 1016.26 1016.14 1015.94 1015.74 1015.58 1015.42 1015.26 1015.18 1015.02 1014.90 1014.78 1014.70 1014.54 1014.42 1014.30 1014.18 1014.06 1013.98 1013.82 1013.70
1021.42 1021.38 1021.30 1021.22 1021.18 1021.10 1021.06 1020.98 1020.86 1020.82 1020.70 1020.66 1020.58 1020.54 1020.46 1020.42 1020.34 1020.26 1020.14 1020.02 1019.86 1019.78 1019.70 1019.62 1019.50 1019.42 1019.30 1019.22 1019.10 1018.98 1018.86 1018.70 1018.54 1018.38 1018.22 1018.02 1017.82 1017.62 1017.50 1017.42 1017.42 1017.42 1017.34 1017.22 1017.10 1016.98 1016.86 1016.74 1016.62 1016.46 1016.30 1016.14 1015.98 1015.82 1015.66 1015.50 1015.42 1015.26 1015.10 1014.98 1014.90 1014.82 1014.70 1014.58 1014.46 1014.38 1014.26 1014.22 1014.14
1021.62 1021.54 1021.54 1021.42 1021.38 1021.34 1021.26 1021.18 1021.10 1020.98 1020.98 1020.90 1020.82 1020.78 1020.70 1020.62 1020.54 1020.50 1020.42 1020.26 1020.14 1020.06 1019.94 1019.82 1019.74 1019.70 1019.66 1019.58 1019.46 1019.34 1019.22 1019.06 1018.90 1018.74 1018.54 1018.38 1018.18 1017.98 1017.82 1017.70 1017.66 1017.66 1017.62 1017.50 1017.34 1017.22 1017.10 1016.98 1016.82 1016.70 1016.54 1016.34 1016.18 1016.02 1015.86 1015.70 1015.62 1015.50 1015.38 1015.26 1015.14 1015.06 1014.98 1014.86 1014.74 1014.62 1014.54 1014.54 1014.50
1021.82 1021.74 1021.70 1021.62 1021.54 1021.50 1021.42 1021.38 1021.30 1021.26 1021.18 1021.10 1021.10 1020.98 1020.94 1020.82 1020.78 1020.70 1020.66 1020.54 1020.42 1020.30 1020.22 1020.10 1019.98 1019.98 1019.90 1019.82 1019.70 1019.54 1019.46 1019.34 1019.26 1019.10 1018.98 1018.78 1018.62 1018.38 1018.14 1018.02 1017.94 1017.94 1017.86 1017.78 1017.62 1017.46 1017.34 1017.18 1017.10 1016.94 1016.74 1016.54 1016.42 1016.26 1016.14 1015.98 1015.86 1015.74 1015.62 1015.50 1015.42 1015.26 1015.14 1015.10 1014.98 1014.86 1014.78 1014.74 1014.70
1021.98 1021.90 1021.82 1021.82 1021.74 1021.66 1021.58 1021.54 1021.50 1021.42 1021.42 1021.34 1021.26 1021.18 1021.10 1021.06 1020.98 1020.98 1020.90 1020.78 1020.70 1020.54 1020.42 1020.30 1020.26 1020.18 1020.10 1019.98 1019.86 1019.78 1019.70 1019.62 1019.54 1019.42 1019.34 1019.18 1018.98 1018.78 1018.54 1018.34 1018.26 1018.18 1018.14 1018.02 1017.86 1017.70 1017.54 1017.42 1017.30 1017.14 1016.98 1016.82 1016.70 1016.54 1016.42 1016.26 1016.14 1015.98 1015.86 1015.74 1015.66 1015.54 1015.42 1015.30 1015.18 1015.10 1014.98 1014.90 1014.82
1022.14 1022.10 1022.02 1021.98 1021.94 1021.82 1021.74 1021.70 1021.70 1021.66 1021.58 1021.50 1021.46 1021.42 1021.38 1021.30 1021.26 1021.14 1021.10 1020.98 1020.82 1020.74 1020.62 1020.50 1020.42 1020.34 1020.26 1020.14 1020.06 1019.98 1019.90 1019.82 1019.74 1019.70 1019.66 1019.50 1019.30 1019.10 1018.90 1018.70 1018.54 1018.46 1018.38 1018.26 1018.14 1017.98 1017.78 1017.62 1017.50 1017.38 1017.26 1017.10 1016.98 1016.82 1016.66 1016.50 1016.34 1016.22 1016.14 1016.02 1015.94 1015.82 1015.66 1015.54 1015.42 1015.30 1015.22 1015.10 1015.02
Wind_Speed
10 9 9 8 8 7 7 7 7 7 7 7 8 8 8 8 8 8 7 7 7 7 7 7 8 9 10 13 13 13 13 14 14 15 15 15 15 15 15 15 15 14 13 12 10 8 7 8 7 6 5 5 7 8 8 8 9 9 9 10 9 9 10 10 10 11 12 12 9
11 11 10 9 9 8 7 7 8 8 8 8 8 8 8 8 8 8 8 8 7 7 7 7 8 10 11 13 13 13 13 13 14 15 15 15 15 15 15 14 14 14 14 12 11 8 7 7 7 6 5 5 6 7 8 8 8 9 10 11 9 9 8 9 9 10 11 10 9
10 10 10 10 10 10 9 8 9 10 10 9 8 8 8 8 7 8 8 8 8 8 7 7 8 10 12 13 12 12 12 12 13 14 14 13 13 14 14 12 13 13 13 12 10 9 8 7 6 6 5 5 6 7 7 8 8 8 9 10 8 7 6 6 7 8 8 7 8
10 10 10 11 12 12 11 9 10 11 10 9 9 9 8 8 8 8 8 9 9 8 8 8 9 9 10 11 12 13 13 13 14 14 13 13 13 13 13 12 12 12 12 11 11 10 9 8 6 5 5 6 7 6 6 6 7 7 6 7 6 6 6 6 7 7 7 7 8
11 10 10 10 12 12 11 10 11 11 10 8 8 8 8 8 8 8 9 9 9 9 10 11 10 10 10 12 13 14 14 14 14 13 13 13 13 13 13 13 13 13 12 11 11 10 10 9 5 4 4 5 5 5 6 7 7 7 6 6 6 6 7 7 7 6 6 6 6
10 11 11 11 12 12 11 10 11 11 10 9 9 10 10 9 9 10 10 10 10 11 12 12 12 11 12 13 14 14 14 14 14 14 14 14 14 14 15 15 15 14 13 12 12 11 10 9 5 4 4 5 5 6 7 9 8 8 8 7 7 7 7 7 6 5 4 4 5
11 11 11 12 12 12 11 11 11 10 10 9 11 12 12 11 12 12 13 11 11 11 12 11 12 13 13 14 14 14 14 14 15 15 16 14 15 16 16 16 16 16 16 15 14 13 11 10 7 6 6 6 5 6 8 9 9 9 9 8 7 6 7 8 7 7 7 9 9
10 11 11 12 12 12 12 12 11 10 10 9 11 13 14 14 14 14 13 12 11 11 11 10 13 14 14 14 14 14 14 15 15 15 15 15 16 16 16 16 17 17 16 16 15 15 13 10 8 7 7 6 5 6 8 10 10 9 9 8 7 7 8 8 8 9 9 11 11
10 11 12 12 12 12 12 12 12 11 11 11 12 13 14 14 14 14 13 11 11 11 11 11 13 15 15 15 14 14 14 14 15 15 15 15 16 16 16 15 16 16 16 15 16 16 15 11 10 9 8 7 7 8 10 12 12 11 10 8 8 9 9 8 9 10 10 11 11
11 11 12 12 13 12 12 12 11 12 12 12 13 14 14 14 14 13 12 10 11 11 12 12 14 14 15 15 14 14 14 13 13 14 14 15 15 16 16 14 16 16 15 15 14 14 14 11 11 11 11 10 11 12 13 13 13 12 11 8 9 10 11 11 11 11 11 10 11
12 12 12 11 12 12 12 11 11 11 12 12 13 13 13 13 14 13 12 11 12 13 13 13 14 14 14 13 14 14 14 13 13 13 14 15 15 16 16 15 16 16 16 15 13 12 11 10 12 13 14 12 12 12 12 13 12 12 11 10 11 12 12 13 12 10 10 10 11
12 12 12 12 12 12 12 11 10 10 11 12 13 13 12 12 13 13 13 13 13 13 13 13 14 14 13 12 13 13 13 14 13 13 14 15 15 15 16 16 16 16 16 15 13 11 10 11 13 14 14 14 11 10 11 13 13 13 13 13 12 13 13 13 12 10 9 10 10
11 12 12 12 13 12 12 11 10 10 11 12 12 12 11 11 13 13 13 14 13 12 12 12 13 13 12 12 13 13 13 13 14 14 14 14 15 15 15 16 16 16 15 14 13 12 11 12 14 15 15 14 12 12 12 14 14 14 14 14 14 13 13 13 12 11 11 11 11
11 12 12 13 13 12 11 11 9 10 11 12 12 11 11 11 12 12 12 13 13 12 11 11 11 11 12 13 13 14 14 14 14 14 15 15 15 15 15 15 15 15 14 12 13 13 13 13 14 14 15 15 14 14 14 14 14 14 14 14 14 14 14 13 13 12 12 13 13
12 12 12 13 13 12 11 11 9 9 11 12 12 11 11 10 11 11 12 12 12 12 11 11 11 11 12 14 14 14 14 14 14 15 15 15 15 15 15 15 15 15 14 13 13 14 14 15 14 14 14 15 15 15 14 14 14 13 13 14 14 14 14 14 13 13 13 14 14
11 12 12 13 12 12 11 10 9 9 10 11 11 11 10 10 10 11 12 12 11 11 11 12 11 11 12 13 14 14 14 14 14 15 15 15 15 15 15 15 15 15 15 15 15 15 15 15 14 14 14 15 15 15 15 14 14 14 14 14 14 15 14 14 14 14 15 16 16
12 12 12 12 13 12 12 11 9 9 10 11 11 11 10 10 9 10 11 12 11 11 12 13 12 12 12 13 13 13 13 13 14 14 14 14 15 15 15 15 15 15 15 15 15 16 16 15 14 14 14 15 14 15 15 14 14 14 15 15 15 15 15 15 15 15 16 17 17
12 12 12 12 13 12 12 12 11 11 11 11 11 11 10 10 10 10 11 12 12 13 13 14 13 13 13 14 13 12 12 13 13 14 14 14 15 15 15 15 15 15 15 15 15 16 16 16 15 15 14 14 14 14 14 14 14 15 16 16 17 16 16 16 16 15 15 16 16
12 12 12 12 13 12 12 12 12 11 11 11 11 11 11 11 11 11 11 12 13 13 14 13 13 13 14 15 14 13 13 13 14 15 14 14 15 15 15 15 15 15 15 15 15 15 15 15 15 15 15 14 14 14 14 14 14 15 16 16 17 17 17 17 16 15 15 15 15
12 12 12 12 12 12 12 12 11 11 11 11 11 12 12 12 12 12 12 12 13 13 14 14 14 14 15 15 15 15 13 12 14 15 15 15 15 15 15 15 15 15 15 15 15 15 15 15 15 15 15 15 15 15 15 14 15 15 15 15 16 17 17 17 17 17 17 16 16
12 12 11 11 11 11 11 11 11 11 11 11 12 12 12 12 12 12 13 12 13 13 14 14 15 15 15 16 16 15 14 12 14 14 14 15 15 15 15 15 15 15 15 15 15 15 15 15 15 15 15 15 16 16 15 14 15 16 16 15 15 16 17 17 18 18 18 18 17
11 11 11 11 11 11 11 10 10 11 11 12 12 12 12 12 12 12 13 13 13 13 14 14 15 15 15 15 15 15 14 13 14 14 14 14 15 15 15 15 16 16 16 16 16 15 15 15 15 15 15 15 16 16 16 15 15 15 16 16 16 17 17 17 17 17 18 18 17
11 10 10 10 11 11 11 11 11 11 12 12 12 12 12 12 12 12 13 13 13 13 14 13 14 14 15 15 15 15 14 14 15 15 15 15 15 15 15 15 16 17 17 15 15 15 14 14 14 15 15 14 15 16 16 16 15 15 15 16 16 16 16 16 16 16 16 16 16
11 11 10 9 11 11 11 11 12 12 12 12 12 12 12 12 12 13 13 13 14 14 13 12 12 13 14 14 14 15 15 15 16 16 16 16 16 16 16 15 15 16 15 14 16 16 15 12 12 12 13 13 13 14 14 14 14 14 14 15 15 15 15 15 16 15 15 15 14
11 11 11 11 11 11 12 12 12 12 12 12 12 12 12 12 12 13 13 13 14 14 13 13 12 12 12 13 14 14 15 15 16 16 16 16 16 16 15 14 13 13 13 15 21 23 21 17 14 11 11 11 11 12 12 13 14 14 14 14 14 14 14 15 15 15 15 14 13
11 11 12 11 11 12 12 12 12 12 12 12 12 13 13 12 12 13 13 13 13 13 13 12 12 12 12 12 13 14 14 14 15 16 16 16 16 16 15 13 12 11 13 18 23 25 24 23 20 16 12 10 10 10 11 11 12 13 13 13 13 13 13 14 14 14 14 13 13
11 11 11 11 12 12 12 12 12 12 12 12 12 12 12 12 12 12 13 13 13 12 12 11 11 11 11 11 14 15 15 14 15 15 16 16 16 15 15 13 11 11 13 20 23 23 23 23 22 19 15 11 10 10 10 10 11 11 12 12 12 13 13 13 13 13 13 12 12
11 11 11 11 12 12 12 12 12 12 12 12 12 12 12 12 13 13 13 13 12 12 11 10 10 10 9 10 13 15 15 15 14 14 14 15 15 15 14 13 12 13 16 21 22 22 22 22 22 21 18 13 10 9 10 10 10 10 10 11 12 12 13 12 12 12 12 12 11
11 11 11 11 12 12 12 12 12 12 12 12 12 12 12 13 13 13 13 13 13 12 11 10 9 9 10 12 13 14 15 15 14 13 14 15 15 15 14 14 13 15 18 21 21 21 21 21 21 21 19 16 10 8 8 8 8 9 9 10 11 11 12 11 11 11 11 11 10
10 10 11 11 12 12 12 12 12 11 11 10 11 12 12 13 13 14 14 14 14 13 11 10 11 12 13 13 13 13 14 14 13 13 14 15 15 15 15 14 13 15 17 21 20 20 20 20 20 20 20 18 12 9 7 8 8 8 9 9 10 11 12 12 12 12 12 11 11
10 10 10 11 11 11 11 11 11 11 11 10 11 12 13 13 14 14 13 13 13 12 12 13 14 14 15 14 14 14 14 14 13 13 14 14 15 15 15 15 14 15 17 21 20 20 20 20 20 20 19 18 13 10 9 9 9 9 9 10 12 12 12 11 12 13 13 12 12
10 10 10 11 11 11 11 11 11 11 11 12 12 12 13 13 13 13 13 12 12 13 13 14 15 15 15 15 15 14 14 14 14 14 14 14 14 14 14 14 14 15 17 20 20 19 19 19 19 19 19 18 14 11 11 10 10 10 10 12 13 14 14 12 12 13 14 14 13
10 10 10 10 10 10 10 10 10 11 11 12 12 12 13 13 12 12 12 12 12 13 13 14 14 14 14 14 14 14 14 14 14 14 15 15 15 15 14 13 13 15 18 20 19 19 18 18 18 18 17 16 12 11 11 11 10 9 10 12 13 14 15 15 14 14 14 14 13
10 10 10 10 10 10 10 10 10 11 11 12 12 12 12 12 12 12 12 11 11 12 12 13 13 13 13 13 14 14 14 13 14 14 15 15 15 15 15 13 11 14 19 20 19 19 18 18 17 17 15 14 10 9 10 11 10 10 11 12 13 14 14 15 16 16 16 15 14
10 10 10 10 10 10 10 11 11 11 12 12 12 12 12 12 12 12 12 11 11 11 11 12 12 12 12 13 13 14 15 14 14 15 15 14 15 15 15 15 14 17 20 20 20 19 18 18 17 16 14 11 9 8 9 10 10 11 12 12 13 14 14 15 15 16 16 17 16
10 10 10 10 10 11 11 11 11 11 12 12 12 12 12 12 11 11 11 11 11 11 12 12 12 13 13 13 13 14 15 15 15 15 15 15 15 16 16 16 16 18 20 21 20 19 19 18 17 15 13 10 8 7 8 8 8 10 11 12 12 13 14 13 14 15 16 17 17
10 10 10 10 10 10 11 11 11 11 12 12 12 12 11 11 11 10 10 10 11 11 12 12 12 13 13 13 13 13 14 14 15 15 15 15 15 16 16 16 17 18 20 21 21 20 19 18 17 15 12 9 8 8 8 7 7 8 10 11 11 12 12 11 12 14 16 17 18
10 10 10 10 10 10 10 10 11 11 11 11 11 11 10 10 10 10 10 10 10 11 11 12 12 12 12 12 12 13 14 14 14 15 15 15 15 16 16 17 17 17 19 21 21 21 20 19 18 16 13 9 8 8 7 7 8 8 9 9 10 11 11 9 9 11 13 17 19
9 9 10 10 10 10 10 10 11 11 11 10 10 10 10 10 9 9 9 9 10 10 10 11 11 11 11 11 11 12 13 14 14 14 15 15 15 16 16 16 16 17 18 21 21 21 20 20 19 17 14 10 9 8 7 7 8 9 9 9 8 9 10 9 8 9 11 15 19
9 9 9 10 10 10 10 10 10 10 10 10 10 10 10 10 9 9 9 9 9 9 10 10 11 11 10 10 11 12 13 13 14 14 14 14 15 15 16 15 16 17 18 21 22 21 21 20 19 18 15 10 9 8 7 7 8 9 9 9 8 8 8 9 8 8 9 12 15
8 9 9 9 9 9 10 10 10 10 9 9 10 9 9 9 9 9 8 8 9 9 8 9 10 10 10 10 10 11 12 13 13 14 14 14 14 15 15 15 15 16 17 19 21 22 21 21 20 19 16 11 9 8 7 7 8 9 10 9 9 8 8 8 8 8 9 10 11
Wind_Direction
342 343 343 343 342 341 340 341 340 339 339 339 337 336 334 330 325 322 318 316 316 316 316 315 313 313 314 316 317 317 316 316 315 314 313 312 312 312 313 314 315 315 313 311 306 299 291 285 282 277 272 267 269 270 272 273 274 275 274 272 269 267 267 269 273 275 276 276 276
342 343 344 345 346 345 344 344 344 343 342 341 340 338 336 332 329 325 323 322 321 320 318 317 316 317 318 319 319 318 317 315 314 313 312 312 312 313 316 318 320 321 323 323 319 311 298 288 283 279 274 272 274 276 277 277 276 276 276 277 279 282 285 286 285 284 282 280 275
343 344 345 348 350 350 348 346 345 343 342 340 341 340 339 335 332 329 328 326 327 326 326 325 324 324 323 322 321 320 318 316 315 315 314 313 314 316 318 322 325 329 331 334 329 322 311 299 291 286 283 283 286 287 289 290 290 290 290 293 295 295 293 286 279 276 274 270 265
345 346 347 349 351 351 350 347 345 343 343 341 342 341 340 339 338 334 329 326 331 335 338 337 333 331 329 327 327 326 325 324 323 321 320 320 320 322 324 329 333 335 337 338 334 329 322 315 306 298 296 297 297 298 299 303 307 308 308 308 306 301 294 285 280 276 273 269 265
347 348 350 351 352 352 350 348 346 345 345 343 343 343 343 343 343 338 334 332 340 347 349 347 343 340 338 338 337 336 336 336 335 334 334 334 334 335 338 342 341 341 340 339 337 335 332 328 319 308 303 305 304 308 314 321 322 321 317 311 307 301 296 289 281 274 270 271 275
348 349 351 352 353 353 352 349 349 348 347 345 347 347 347 348 347 345 342 340 345 351 353 352 351 350 348 348 348 348 348 349 349 348 348 349 349 350 351 352 351 349 347 344 342 340 338 335 326 318 317 318 318 323 328 331 325 319 313 307 305 304 303 302 297 296 307 332 342
349 351 353 354 355 355 354 352 351 350 349 348 350 351 352 352 351 349 347 345 349 354 356 356 358 357 356 356 356 356 357 358 357 357 358 359 360 360 360 360 359 358 356 353 351 349 346 341 335 330 328 327 326 329 330 329 322 316 313 313 320 331 338 342 346 357 9 16 15
352 353 355 356 357 356 355 354 354 354 353 353 354 355 355 355 354 353 351 351 354 357 358 360 1 1 0 2 2 2 2 3 2 2 3 4 5 5 5 5 5 4 3 1 360 359 357 352 348 343 337 333 333 337 338 337 334 333 335 345 357 3 5 5 6 10 14 16 17
356 357 357 358 359 358 357 356 357 358 358 357 358 358 358 358 357 356 355 355 357 359 0 2 2 2 3 5 6 6 6 7 6 5 6 7 8 9 9 9 9 9 9 7 8 8 7 5 2 358 355 357 4 6 5 2 3 6 10 15 15 12 10 11 12 12 14 15 17
359 359 360 360 0 359 358 358 0 1 1 1 1 1 1 1 360 360 359 357 358 1 4 5 5 5 6 8 9 10 10 10 9 9 9 11 12 12 12 12 13 14 14 13 12 13 13 13 12 11 12 16 20 20 19 18 21 23 24 22 17 16 16 16 16 15 15 15 16
2 2 2 2 1 0 360 0 3 4 4 3 4 4 4 4 3 2 1 359 2 5 6 6 6 7 7 9 11 12 12 13 13 13 14 15 15 16 16 16 17 18 18 17 16 15 16 17 18 19 20 21 21 21 21 22 25 26 27 24 21 21 20 19 18 17 17 16 17
4 4 4 5 3 3 2 4 5 6 6 6 6 5 5 5 4 3 3 4 7 8 8 7 8 8 9 9 11 13 14 15 16 16 17 18 18 19 19 20 20 21 21 20 18 18 19 20 22 23 24 23 22 21 21 23 26 28 29 27 27 25 24 22 21 20 20 20 22
7 6 7 7 6 6 5 6 7 7 7 7 7 7 6 6 6 5 6 7 9 9 9 8 9 10 10 9 12 14 15 16 18 19 20 21 21 21 21 22 22 22 22 21 21 22 23 25 26 27 28 27 27 26 26 27 30 31 31 31 31 30 28 26 24 23 24 25 27
10 10 10 10 9 8 7 7 8 8 9 9 9 8 6 6 7 7 8 9 11 11 10 9 11 11 11 11 13 15 17 18 19 21 23 23 23 23 23 23 22 22 22 22 23 26 28 29 29 30 31 31 31 31 31 32 33 34 35 35 35 34 33 30 29 28 29 30 31
13 13 13 13 12 10 9 9 9 10 10 11 10 8 7 7 8 9 10 12 13 13 13 13 13 14 14 14 15 16 18 19 21 23 24 25 24 24 24 23 23 23 23 23 25 27 29 30 31 31 32 32 32 32 32 33 35 37 38 39 39 39 37 35 34 34 35 35 35
15 16 16 15 14 13 12 11 11 11 12 13 11 10 9 8 8 11 13 14 14 15 16 17 16 16 16 17 18 18 19 20 22 24 25 26 25 25 25 24 24 24 24 24 25 27 28 29 29 30 31 32 31 31 30 30 32 35 38 40 41 41 40 39 38 38 39 39 39
17 18 18 17 16 15 14 13 13 13 13 14 13 13 12 10 11 13 15 16 16 17 18 19 19 19 19 20 20 20 20 21 23 24 26 27 27 27 27 26 25 25 25 25 26 26 26 26 27 28 29 31 30 29 28 27 28 30 33 36 38 39 39 39 40 41 41 42 42
19 19 19 19 18 17 16 15 15 15 15 16 16 16 15 14 14 15 17 18 19 20 20 21 22 22 23 23 23 23 22 23 24 26 27 28 29 29 29 29 28 27 26 26 26 26 25 25 25 25 27 29 30 29 29 27 28 29 31 32 33 34 35 36 37 40 42 44 44
21 21 20 20 19 18 17 16 17 17 17 18 18 18 18 17 17 18 19 20 21 21 22 23 24 25 25 26 26 26 25 25 26 27 29 30 31 32 32 31 30 29 28 27 26 26 26 25 25 25 26 28 29 30 30 30 30 31 31 32 31 31 31 31 33 36 39 42 44
23 22 22 21 20 19 18 17 17 17 18 20 20 20 20 19 20 21 22 21 22 23 24 26 26 26 27 27 28 28 27 27 27 28 29 31 32 33 33 33 33 31 29 27 26 26 26 26 26 27 27 29 29 30 30 31 32 33 33 33 32 31 30 30 30 32 34 37 39
24 23 23 22 21 20 19 18 17 18 20 22 22 22 21 20 22 23 23 23 23 25 26 27 28 28 28 28 29 29 28 28 28 29 30 32 33 33 34 35 34 34 32 29 27 26 26 27 27 28 29 30 30 30 30 31 32 33 34 34 33 33 32 31 31 31 31 32 33
24 24 23 23 22 20 20 19 19 20 21 23 22 22 22 22 23 24 25 25 26 27 28 29 29 29 29 29 29 30 30 30 31 32 33 33 34 34 34 35 36 36 35 33 30 28 27 27 28 29 30 31 31 31 31 31 32 33 34 34 34 34 33 32 31 31 30 30 30
25 24 24 23 22 21 21 21 22 22 23 23 23 23 23 24 24 25 26 26 27 28 29 30 30 30 31 31 31 31 32 33 34 35 36 36 36 36 36 37 38 38 37 36 34 32 29 28 28 29 30 32 32 32 32 32 32 32 32 32 33 33 33 32 31 30 29 28 28
26 25 24 23 22 21 22 22 23 24 23 23 23 24 24 25 25 26 27 28 29 29 30 30 30 31 33 34 33 34 34 35 36 37 37 38 38 38 38 39 39 39 39 39 39 38 36 33 29 28 29 31 32 32 32 32 32 32 31 31 31 31 31 31 31 30 29 28 27
27 27 26 25 23 23 23 24 24 24 24 24 23 24 26 26 27 28 29 30 30 30 30 31 31 32 33 34 35 36 36 37 37 38 38 39 39 40 40 41 40 39 40 42 44 44 44 41 37 32 29 29 30 31 32 32 32 32 32 31 29 29 29 29 29 29 29 27 26
29 29 28 26 25 25 25 25 26 26 26 25 25 26 27 28 29 30 31 31 31 30 30 31 31 32 33 34 35 37 38 38 39 39 40 40 40 41 41 42 41 41 42 43 44 45 45 44 42 39 35 29 28 29 30 30 29 30 31 30 29 28 27 27 27 27 27 27 26
31 31 30 29 28 29 28 28 28 27 28 28 28 28 28 29 31 32 32 32 32 31 31 31 31 31 32 34 36 37 38 39 40 40 41 41 41 41 41 42 42 43 44 44 45 45 45 44 43 41 38 32 29 27 27 26 26 27 29 29 29 28 28 27 26 26 27 27 26
33 33 32 31 31 32 32 31 31 30 30 30 30 30 31 32 34 34 34 33 32 32 32 31 30 30 32 34 36 37 38 39 39 39 39 40 40 40 40 40 40 42 43 44 44 44 43 43 42 40 38 34 30 27 27 27 26 27 28 30 30 30 29 28 27 26 26 26 27
35 35 35 34 35 34 34 34 33 32 32 32 32 33 34 35 35 35 35 34 33 33 32 31 30 32 33 35 36 36 37 37 37 37 37 38 38 38 38 38 38 39 40 41 42 41 40 40 39 38 36 33 29 25 24 26 27 28 30 31 31 31 31 29 28 27 26 26 26
36 37 37 38 38 37 37 36 34 34 33 33 34 36 37 37 36 35 35 34 34 34 33 33 35 36 37 37 36 35 35 34 34 34 34 35 36 36 35 35 34 35 36 37 39 39 37 36 36 35 34 32 30 27 26 27 29 31 33 33 32 32 32 31 30 29 28 27 27
37 38 39 40 40 40 39 37 36 35 35 36 36 37 38 38 37 36 35 35 35 35 36 38 39 40 40 39 38 38 36 35 34 34 34 34 34 34 33 33 32 33 34 35 37 37 36 35 35 34 33 31 28 27 28 31 32 34 35 36 35 34 33 33 31 30 29 29 29
37 39 40 41 41 41 40 38 37 37 37 38 38 38 38 38 38 37 37 36 37 37 38 39 40 40 40 40 40 39 39 37 36 36 35 35 35 34 33 32 30 31 32 34 35 36 35 35 35 35 34 32 30 30 32 35 35 35 35 37 37 37 35 34 33 31 30 29 30
36 38 39 40 40 40 39 39 38 38 38 39 39 38 38 38 38 38 37 37 38 38 38 38 39 39 39 39 40 40 40 39 38 38 38 38 38 37 36 34 31 30 30 32 33 33 34 33 33 33 33 32 32 32 33 36 36 35 34 35 37 37 37 36 34 32 30 28 28
34 36 38 39 39 38 38 37 38 38 39 39 39 39 38 38 37 37 37 38 38 39 39 39 38 38 37 37 39 39 39 39 38 37 37 38 39 40 39 37 33 30 29 30 31 31 31 31 30 29 28 27 29 31 33 35 36 35 35 35 35 35 35 35 35 33 31 29 27
34 36 37 38 38 38 37 37 37 38 39 40 39 38 38 37 37 37 37 38 40 40 40 39 38 37 36 35 37 38 38 38 37 36 35 36 38 40 41 40 37 33 31 31 31 31 30 29 27 24 22 20 22 26 30 33 33 33 33 34 34 33 33 34 34 33 32 30 27
35 37 38 39 39 38 38 38 38 39 40 40 39 38 37 37 37 36 37 38 40 41 41 40 39 38 37 36 36 35 35 36 36 35 33 33 36 39 41 41 38 35 32 32 32 31 30 28 26 22 19 16 18 21 24 27 28 28 29 31 31 31 30 31 33 33 33 31 28
37 38 40 41 41 40 40 40 41 41 41 40 39 38 37 37 37 35 35 36 39 40 40 40 39 39 38 37 37 36 34 34 34 33 32 31 33 36 39 40 38 35 33 32 32 32 30 28 25 22 18 16 17 18 21 23 24 24 26 29 29 28 27 28 31 33 34 33 30
39 40 42 43 43 43 43 42 42 42 42 41 40 38 37 37 37 36 34 35 38 39 40 40 40 40 39 39 39 38 36 34 33 32 31 30 30 32 35 39 38 36 33 31 32 32 31 29 25 22 19 17 18 18 19 21 22 23 23 24 26 26 26 26 26 30 33 33 32
42 42 44 45 45 45 45 45 44 43 42 41 40 39 38 37 37 36 35 36 38 39 40 40 40 40 40 39 40 39 37 35 33 32 30 29 28 29 32 36 37 35 33 31 32 32 31 29 26 23 20 19 18 18 19 20 22 23 22 21 22 23 24 25 24 26 29 31 32
44 44 45 45 45 45 46 46 45 44 42 41 40 39 38 38 38 37 36 37 39 40 40 40 40 39 39 38 40 40 38 36 34 32 30 28 27 28 30 34 35 35 33 31 31 31 31 30 28 25 23 20 18 18 18 19 22 24 23 20 19 19 21 22 22 23 25 26 30
47 46 46 46 46 45 45 45 44 43 42 41 41 40 40 39 39 39 38 40 39 40 40 40 39 39 39 39 40 40 39 38 36 34 31 29 28 28 29 31 33 33 33 31 30 30 31 31 30 28 26 23 20 19 19 19 22 23 23 20 18 18 18 19 20 21 22 23 26